EW6167 Weather Reports


Display with metric or nautical units.
time (UTC)temp
F
wind
direction
speed
MPH
gust
MPH
rain 1hr
in
rain 24hr
in
rain mn
in
humidity
%
barometer
mb
20260509175001 54 360 10.0 0.0 0.00 0.00 0.00 31 1012.5
20260509174543 54 38 9.0 0.0 0.00 0.00 0.00 29 1012.5
20260509174021 54 51 9.0 0.0 0.00 0.00 0.00 31 1012.4
20260509173605 54 10 11.0 0.0 0.00 0.00 0.00 30 1012.4
20260509173047 54 339 12.0 0.0 0.00 0.00 0.00 30 1012.3
20260509172522 54 11 12.0 0.0 0.00 0.00 0.00 31 1012.4
20260509172106 54 355 10.0 0.0 0.00 0.00 0.00 32 1012.4
20260509171550 54 360 11.0 0.0 0.00 0.00 0.00 32 1012.5
20260509171027 54 360 10.0 0.0 0.00 0.00 0.00 31 1012.5
20260509170507 53 330 10.0 0.0 0.00 0.00 0.00 33 1012.5
20260509170052 53 350 13.0 0.0 0.00 0.00 0.00 33 1012.4
20260509165525 54 334 13.0 0.0 0.00 0.00 0.00 32 1012.4
20260509165005 53 337 14.0 0.0 0.00 0.00 0.00 33 1012.4
20260509164552 53 316 12.0 0.0 0.00 0.00 0.00 33 1012.4
20260509164036 53 11 11.0 0.0 0.00 0.00 0.00 34 1012.4
20260509163518 53 355 11.0 0.0 0.00 0.00 0.00 33 1012.5
20260509163104 54 350 11.0 0.0 0.00 0.00 0.00 34 1012.4
20260509162548 53 345 13.0 0.0 0.00 0.00 0.00 34 1012.4
20260509162032 53 11 13.0 0.0 0.00 0.00 0.00 33 1012.4
20260509161513 53 11 13.0 0.0 0.00 0.00 0.00 35 1012.6
20260509161058 52 26 11.0 0.0 0.00 0.00 0.00 35 1012.5
20260509160544 52 5 9.0 0.0 0.00 0.00 0.00 35 1012.4
20260509160036 52 20 10.0 0.0 0.00 0.00 0.00 35 1012.4
20260509155517 52 355 11.0 0.0 0.00 0.00 0.00 35 1012.4
20260509155104 51 5 12.0 0.0 0.00 0.00 0.00 34 1012.4
20260509154551 51 329 13.0 0.0 0.00 0.00 0.00 34 1012.3
20260509154032 52 355 12.0 0.0 0.00 0.00 0.00 36 1012.2
20260509153518 51 342 12.0 0.0 0.00 0.00 0.00 35 1012.3
20260509153111 51 348 11.0 0.0 0.00 0.00 0.00 37 1012.3
20260509152548 51 5 11.0 0.0 0.00 0.00 0.00 36 1012.4
20260509152034 51 360 8.0 0.0 0.00 0.00 0.00 37 1012.5
20260509151524 50 21 7.0 0.0 0.00 0.00 0.00 38 1012.6
20260509151011 50 11 8.0 0.0 0.00 0.00 0.00 38 1012.5
20260509150602 50 342 9.0 0.0 0.00 0.00 0.00 37 1012.4
20260509150043 50 35 9.0 0.0 0.00 0.00 0.00 39 1012.5
20260509145526 50 15 9.0 0.0 0.00 0.00 0.00 40 1012.5
20260509145010 49 343 10.0 0.0 0.00 0.00 0.00 40 1012.5
20260509144602 49 360 11.0 0.0 0.00 0.00 0.00 39 1012.4
20260509144048 49 5 9.0 0.0 0.00 0.00 0.00 39 1012.5
20260509143534 49 5 6.0 0.0 0.00 0.00 0.00 41 1012.4
20260509143024 48 36 6.0 0.0 0.00 0.00 0.00 43 1012.6
20260509142512 47 15 6.0 0.0 0.00 0.00 0.00 44 1012.6
20260509142103 47 30 6.0 0.0 0.00 0.00 0.00 44 1012.6
20260509141551 47 28 7.0 0.0 0.00 0.00 0.00 45 1012.6
20260509141041 46 23 7.0 0.0 0.00 0.00 0.00 48 1012.7
20260509140525 46 26 6.0 0.0 0.00 0.00 0.00 47 1012.6
20260509140017 45 33 4.0 0.0 0.00 0.00 0.00 48 1012.6
20260509135510 45 347 4.0 0.0 0.00 0.00 0.00 46 1012.6
20260509135055 45 355 4.0 0.0 0.00 0.00 0.00 46 1012.6
20260509134545 45 360 4.0 0.0 0.00 0.00 0.00 46 1012.6
20260509134031 44 40 3.0 0.0 0.00 0.00 0.00 47 1012.6
20260509133517 44 38 4.0 0.0 0.00 0.00 0.00 47 1012.5
20260509133003 44 38 4.0 0.0 0.00 0.00 0.00 47 1012.5
20260509132553 44 62 3.0 0.0 0.00 0.00 0.00 46 1012.4
20260509132045 44 62 4.0 0.0 0.00 0.00 0.00 47 1012.4
20260509131532 44 62 3.0 0.0 0.00 0.00 0.00 47 1012.2
20260509131021 44 66 3.0 0.0 0.00 0.00 0.00 48 1012.2
20260509130510 45 355 3.0 0.0 0.00 0.00 0.00 48 1012.0
20260509130005 45 355 4.0 0.0 0.00 0.00 0.00 48 1012.0
20260509125556 45 355 5.0 0.0 0.00 0.00 0.00 48 1011.9
20260509125049 44 355 5.0 0.0 0.00 0.00 0.00 48 1011.9
20260509124548 44 344 3.0 0.0 0.00 0.00 0.00 48 1011.9
20260509124032 43 77 3.0 0.0 0.00 0.00 0.00 48 1011.9
20260509123526 43 355 3.0 0.0 0.00 0.00 0.00 46 1011.9
20260509123015 44 355 4.0 0.0 0.00 0.00 0.00 46 1012.0
20260509122502 43 355 3.0 0.0 0.00 0.00 0.00 46 1012.0
20260509122058 43 355 3.0 0.0 0.00 0.00 0.00 46 1012.0
20260509121553 43 355 3.0 0.0 0.00 0.00 0.00 47 1011.9
20260509121048 43 351 5.0 0.0 0.00 0.00 0.00 47 1011.9
20260509120536 42 351 4.0 0.0 0.00 0.00 0.00 48 1011.8
20260509120025 42 355 3.0 0.0 0.00 0.00 0.00 48 1011.7
20260509115517 42 34 2.0 0.0 0.00 0.00 0.00 47 1011.6
20260509115006 43 355 1.0 0.0 0.00 0.00 0.00 45 1011.5
20260509114600 43 341 1.0 0.0 0.00 0.00 0.00 44 1011.5
20260509114053 44 341 2.0 0.0 0.00 0.00 0.00 43 1011.5
20260509113548 44 341 3.0 0.0 0.00 0.00 0.00 42 1011.5
20260509113043 45 341 4.0 0.0 0.00 0.00 0.00 42 1011.4
20260509112529 45 341 5.0 0.0 0.00 0.00 0.00 42 1011.5
20260509112020 45 341 6.0 0.0 0.00 0.00 0.00 42 1011.4
20260509111514 45 341 7.0 0.0 0.00 0.00 0.00 42 1011.5
20260509111006 44 340 8.0 0.0 0.00 0.00 0.00 43 1011.6
20260509110601 44 340 8.0 0.0 0.00 0.00 0.00 43 1011.6
20260509110052 43 340 7.0 0.0 0.00 0.00 0.00 44 1011.4
20260509105552 42 340 5.0 0.0 0.00 0.00 0.00 44 1011.5
20260509105048 42 22 4.0 0.0 0.00 0.00 0.00 44 1011.4
20260509104605 42 26 4.0 0.0 0.00 0.00 0.00 42 1011.3
20260509104042 41 26 3.0 0.0 0.00 0.00 0.00 43 1011.3
20260509103537 41 30 3.0 0.0 0.00 0.00 0.00 43 1011.2
20260509103034 42 30 4.0 0.0 0.00 0.00 0.00 42 1011.2
20260509102524 41 41 4.0 0.0 0.00 0.00 0.00 43 1011.3
20260509102015 41 46 4.0 0.0 0.00 0.00 0.00 43 1011.2
20260509101513 41 44 4.0 0.0 0.00 0.00 0.00 43 1011.1
20260509101100 42 42 5.0 0.0 0.00 0.00 0.00 42 1011.0
20260509100555 41 38 5.0 0.0 0.00 0.00 0.00 42 1011.0
20260509100047 41 36 4.0 0.0 0.00 0.00 0.00 42 1010.9
20260509095539 42 37 4.0 0.0 0.00 0.00 0.00 41 1010.9
20260509095029 42 37 5.0 0.0 0.00 0.00 0.00 40 1010.9
20260509094528 42 36 4.0 0.0 0.00 0.00 0.00 39 1010.9
20260509094011 43 44 4.0 0.0 0.00 0.00 0.00 38 1010.8
20260509093508 45 55 4.0 0.0 0.00 0.00 0.00 35 1010.7
20260509093003 45 63 3.0 0.0 0.00 0.00 0.00 35 1010.6
20260509092604 44 52 2.0 0.0 0.00 0.00 0.00 36 1010.5
20260509092059 43 52 2.0 0.0 0.00 0.00 0.00 37 1010.5
20260509091552 43 52 4.0 0.0 0.00 0.00 0.00 38 1010.5
20260509091049 44 28 4.0 0.0 0.00 0.00 0.00 37 1010.4
20260509090540 44 21 3.0 0.0 0.00 0.00 0.00 37 1010.4
20260509090047 45 33 3.0 0.0 0.00 0.00 0.00 36 1010.4
20260509085523 46 17 4.0 0.0 0.00 0.00 0.00 36 1010.4
20260509085017 46 17 5.0 0.0 0.00 0.00 0.00 35 1010.3
20260509084512 46 5 5.0 0.0 0.00 0.00 0.00 35 1010.3
20260509084007 47 18 6.0 0.0 0.00 0.00 0.00 35 1010.2
20260509083504 47 351 6.0 0.0 0.00 0.00 0.00 35 1010.3
20260509083002 47 5 7.0 0.0 0.00 0.00 0.00 37 1010.2
20260509082604 47 351 7.0 0.0 0.00 0.00 0.00 36 1010.2
20260509082059 47 355 7.0 0.0 0.00 0.00 0.00 34 1010.2
20260509081555 46 355 6.0 0.0 0.00 0.00 0.00 37 1010.1
20260509081048 46 17 5.0 0.0 0.00 0.00 0.00 39 1010.0
20260509080545 47 23 5.0 0.0 0.00 0.00 0.00 40 1009.9
20260509080040 48 26 4.0 0.0 0.00 0.00 0.00 39 1009.9
20260509075532 49 5 3.0 0.0 0.00 0.00 0.00 38 1009.9
20260509075031 49 5 3.0 0.0 0.00 0.00 0.00 37 1009.9
20260509074528 49 5 2.0 0.0 0.00 0.00 0.00 37 1009.9
20260509074022 49 5 2.0 0.0 0.00 0.00 0.00 37 1009.9
20260509073522 50 59 2.0 0.0 0.00 0.00 0.00 37 1009.8
20260509073035 49 58 2.0 0.0 0.00 0.00 0.00 37 1009.7
20260509072515 49 58 2.0 0.0 0.00 0.00 0.00 38 1009.6
20260509072017 50 58 2.0 0.0 0.00 0.00 0.00 38 1009.6
20260509071515 50 58 3.0 0.0 0.00 0.00 0.00 38 1009.6
20260509071011 50 58 4.0 0.0 0.00 0.00 0.00 37 1009.3
20260509070513 50 39 3.0 0.0 0.00 0.00 0.00 38 1009.4
20260509070024 50 344 1.0 0.0 0.00 0.00 0.00 38 1009.4
20260509065535 50 331 2.0 0.0 0.00 0.00 0.00 39 1009.4
20260509065058 50 331 3.0 0.0 0.00 0.00 0.00 38 1009.3
20260509064518 51 331 3.0 0.0 0.00 0.00 0.00 38 1009.3
20260509064038 51 331 3.0 0.0 0.00 0.00 0.00 37 1009.3
20260509063603 52 323 2.0 0.0 0.00 0.00 0.00 37 1009.3
20260509063112 52 323 3.0 0.0 0.00 0.00 0.00 37 1009.3
20260509062601 52 323 5.0 0.0 0.00 0.00 0.00 36 1009.3
20260509062101 53 321 7.0 0.0 0.00 0.00 0.00 36 1009.3
20260509061618 53 332 7.0 0.0 0.00 0.00 0.00 35 1009.4
20260509061104 53 346 8.0 0.0 0.00 0.00 0.00 36 1009.3
20260509060503 53 344 8.0 0.0 0.00 0.00 0.00 35 1009.3
20260509060114 53 342 8.0 0.0 0.00 0.00 0.00 35 1009.2
20260509055504 53 345 8.0 0.0 0.00 0.00 0.00 37 1009.2
20260509055009 53 337 7.0 0.0 0.00 0.00 0.00 38 1009.2
20260509054510 53 330 7.0 0.0 0.00 0.00 0.00 39 1009.3
20260509054006 53 336 7.0 0.0 0.00 0.00 0.00 40 1009.0
20260509053505 54 338 8.0 0.0 0.00 0.00 0.00 40 1009.0
20260509053007 54 340 9.0 0.0 0.00 0.00 0.00 39 1009.0
20260509052507 54 332 10.0 0.0 0.00 0.00 0.00 39 1008.9
20260509052005 54 339 9.0 0.0 0.00 0.00 0.00 39 1009.0
20260509051510 54 346 9.0 0.0 0.00 0.00 0.00 39 1008.9
20260509051016 54 336 9.0 0.0 0.00 0.00 0.00 36 1008.9
20260509050526 54 328 9.0 0.0 0.00 0.00 0.00 34 1008.8
20260509050056 54 328 9.0 0.0 0.00 0.00 0.00 33 1008.8
20260509045502 55 336 9.0 0.0 0.00 0.00 0.00 33 1008.6
20260509045034 55 333 9.0 0.0 0.00 0.00 0.00 34 1008.6
20260509044604 55 340 9.0 0.0 0.00 0.00 0.00 33 1008.6
20260509044028 55 339 9.0 0.0 0.00 0.00 0.00 34 1008.7
20260509043602 54 332 7.0 0.0 0.00 0.00 0.00 33 1008.6
20260509043027 55 355 6.0 0.0 0.00 0.00 0.00 34 1008.7
20260509042603 56 347 7.0 0.0 0.00 0.00 0.00 33 1008.7
20260509042003 56 311 8.0 0.0 0.00 0.00 0.00 32 1008.6
20260509041507 56 331 8.0 0.0 0.00 0.00 0.00 32 1008.6
20260509041017 55 11 8.0 0.0 0.00 0.00 0.00 33 1008.5
20260509040516 56 38 7.0 0.0 0.00 0.00 0.00 33 1008.4
20260509040023 55 307 3.0 0.0 0.00 0.00 0.00 33 1008.2
20260509035559 55 76 1.0 0.0 0.00 0.00 0.00 34 1008.1
20260509035004 55 76 1.0 0.0 0.00 0.00 0.00 35 1008.1
20260509034511 55 78 0.0 0.0 0.00 0.00 0.00 35 1008.1
20260509034015 55 78 0.0 0.0 0.00 0.00 0.00 36 1008.0
20260509033550 55 78 1.0 0.0 0.00 0.00 0.00 36 1008.0
20260509033027 55 78 2.0 0.0 0.00 0.00 0.00 36 1007.8
20260509032559 55 78 2.0 0.0 0.00 0.00 0.00 37 1007.8
20260509032001 55 75 4.0 0.0 0.00 0.00 0.00 36 1007.8
20260509031541 55 72 2.0 0.0 0.00 0.00 0.00 35 1007.6
20260509031014 56 92 1.0 0.0 0.00 0.00 0.00 35 1007.6
20260509030524 56 92 4.0 0.0 0.00 0.00 0.00 35 1007.4
20260509030028 56 65 6.0 0.0 0.00 0.00 0.00 34 1007.4
20260509025605 56 74 6.0 0.0 0.00 0.00 0.00 34 1007.2
20260509025040 58 74 3.0 0.0 0.00 0.00 0.00 32 1007.2
20260509024511 58 311 2.0 0.0 0.00 0.00 0.00 31 1007.3
20260509024042 59 305 1.0 0.0 0.00 0.00 0.00 31 1007.4
20260509023555 59 305 1.0 0.0 0.00 0.00 0.00 30 1007.5
20260509023034 59 305 0.0 0.0 0.00 0.00 0.00 29 1007.5
20260509022507 60 305 0.0 0.0 0.00 0.00 0.00 29 1007.2
20260509022017 60 305 0.0 0.0 0.00 0.00 0.00 29 1007.2
20260509021524 60 305 1.0 0.0 0.00 0.00 0.00 28 1007.3
20260509021005 60 305 3.0 0.0 0.00 0.00 0.00 28 1007.2
20260509020549 61 305 4.0 0.0 0.00 0.00 0.00 27 1007.2
20260509020047 61 303 5.0 0.0 0.00 0.00 0.00 27 1007.2
20260509015513 62 305 7.0 0.0 0.00 0.00 0.00 26 1007.0
20260509015057 62 307 9.0 0.0 0.00 0.00 0.00 25 1007.0
20260509014545 62 313 10.0 0.0 0.00 0.00 0.00 23 1007.0
20260509014014 62 296 8.0 0.0 0.00 0.00 0.00 24 1007.0
20260509013557 62 290 7.0 0.0 0.00 0.00 0.00 25 1007.0
20260509013002 63 296 6.0 0.0 0.00 0.00 0.00 26 1007.0
20260509012511 63 298 7.0 0.0 0.00 0.00 0.00 26 1006.9
20260509012022 63 296 7.0 0.0 0.00 0.00 0.00 25 1007.0
20260509011503 63 290 9.0 0.0 0.00 0.00 0.00 25 1007.1
20260509011046 64 281 10.0 0.0 0.00 0.00 0.00 24 1007.0
20260509010605 64 291 10.0 0.0 0.00 0.00 0.00 23 1007.1
20260509010011 64 277 10.0 0.0 0.00 0.00 0.00 24 1007.2
20260509005600 64 288 9.0 0.0 0.00 0.00 0.00 23 1007.1
20260509005040 64 286 11.0 0.0 0.00 0.00 0.00 23 1007.2
20260509004530 64 263 13.0 0.0 0.00 0.00 0.00 21 1007.3
20260509004013 64 275 12.0 0.0 0.00 0.00 0.00 20 1007.3
20260509003557 64 273 12.0 0.0 0.00 0.00 0.00 20 1007.4
20260509003010 64 292 13.0 0.0 0.00 0.00 0.00 21 1007.3
20260509002553 65 295 12.0 0.0 0.00 0.00 0.00 20 1007.4
20260509002042 65 299 11.0 0.0 0.00 0.00 0.00 20 1007.3
20260509001523 65 275 12.0 0.0 0.00 0.00 0.00 18 1007.3
20260509001005 65 275 13.0 0.0 0.00 0.00 0.00 20 1007.3
20260509000552 65 304 14.0 0.0 0.00 0.00 0.00 20 1007.2
20260509000001 65 265 15.0 0.0 0.00 0.00 0.00 21 1007.2
20260508235517 65 273 16.0 0.0 0.00 0.00 0.00 21 1007.2
20260508235006 65 266 16.0 0.0 0.00 0.00 0.00 22 1007.3
20260508234557 66 293 14.0 0.0 0.00 0.00 0.00 22 1007.2
20260508234042 66 279 15.0 0.0 0.00 0.00 0.00 23 1007.2
20260508233528 66 289 19.0 0.0 0.00 0.00 0.00 18 1007.1
20260508233011 66 276 19.0 0.0 0.00 0.00 0.00 23 1007.1
20260508232559 66 284 16.0 0.0 0.00 0.00 0.00 22 1007.0
20260508232015 66 298 13.0 0.0 0.00 0.00 0.00 22 1007.0
20260508231523 66 315 13.0 0.0 0.00 0.00 0.00 23 1007.0
20260508231016 66 286 11.0 0.0 0.00 0.00 0.00 22 1007.1
20260508230501 66 263 12.0 0.0 0.00 0.00 0.00 23 1007.1
20260508230100 66 300 12.0 0.0 0.00 0.00 0.00 24 1007.0
20260508225508 66 277 13.0 0.0 0.00 0.00 0.00 23 1007.0
20260508225024 66 292 12.0 0.0 0.00 0.00 0.00 23 1007.0
20260508224535 66 360 13.0 0.0 0.00 0.00 0.00 22 1007.0
20260508224025 66 288 15.0 0.0 0.00 0.00 0.00 21 1007.0
20260508223516 66 284 14.0 0.0 0.00 0.00 0.00 21 1007.0
20260508223004 66 292 13.0 0.0 0.00 0.00 0.00 21 1007.0
20260508222604 66 281 13.0 0.0 0.00 0.00 0.00 22 1006.9
20260508222057 66 309 13.0 0.0 0.00 0.00 0.00 20 1007.0
20260508221552 66 299 15.0 0.0 0.00 0.00 0.00 18 1007.0
20260508221001 67 290 16.0 0.0 0.00 0.00 0.00 19 1007.0
20260508220556 67 294 16.0 0.0 0.00 0.00 0.00 19 1006.9
20260508220005 67 284 9.0 0.0 0.00 0.00 0.00 18 1006.9
20260508215559 67 300 8.0 0.0 0.00 0.00 0.00 19 1007.2
20260508215010 68 296 11.0 0.0 0.00 0.00 0.00 17 1007.1
20260508214504 68 293 10.0 0.0 0.00 0.00 0.00 19 1007.2
20260508214057 68 261 12.0 0.0 0.00 0.00 0.00 19 1007.2
20260508213553 68 302 15.0 0.0 0.00 0.00 0.00 20 1007.2
20260508213004 68 303 10.0 0.0 0.00 0.00 0.00 19 1007.4
20260508212601 67 311 9.0 0.0 0.00 0.00 0.00 19 1007.5
20260508212054 67 294 11.0 0.0 0.00 0.00 0.00 18 1007.7
20260508211505 68 311 12.0 0.0 0.00 0.00 0.00 20 1007.7
20260508211058 67 360 13.0 0.0 0.00 0.00 0.00 19 1007.9
20260508210556 67 271 15.0 0.0 0.00 0.00 0.00 19 1008.0
20260508210007 67 294 16.0 0.0 0.00 0.00 0.00 18 1008.0
20260508205501 66 289 15.0 0.0 0.00 0.00 0.00 18 1008.0
20260508205104 67 286 15.0 0.0 0.00 0.00 0.00 19 1007.9
20260508204558 67 292 17.0 0.0 0.00 0.00 0.00 18 1008.1
20260508204055 67 294 16.0 0.0 0.00 0.00 0.00 19 1008.0
20260508203557 67 287 16.0 0.0 0.00 0.00 0.00 19 1008.0
20260508203106 67 323 17.0 0.0 0.00 0.00 0.00 19 1007.9
20260508202554 67 293 15.0 0.0 0.00 0.00 0.00 20 1008.0
20260508202054 67 292 15.0 0.0 0.00 0.00 0.00 21 1008.0
20260508201511 67 277 17.0 0.0 0.00 0.00 0.00 21 1008.1
20260508201010 67 277 13.0 0.0 0.00 0.00 0.00 23 1008.0
20260508200507 67 306 11.0 0.0 0.00 0.00 0.00 24 1008.1
20260508200009 67 277 13.0 0.0 0.00 0.00 0.00 23 1008.2
20260508195506 67 262 14.0 0.0 0.00 0.00 0.00 25 1008.1
20260508195009 67 280 13.0 0.0 0.00 0.00 0.00 23 1008.0
20260508194506 67 322 9.0 0.0 0.00 0.00 0.00 24 1008.2
20260508194003 66 292 5.0 0.0 0.00 0.00 0.00 23 1008.3
20260508193604 66 82 2.0 0.0 0.00 0.00 0.00 30 1008.5
20260508193105 65 39 2.0 0.0 0.00 0.00 0.00 27 1008.6
20260508192605 65 38 3.0 0.0 0.00 0.00 0.00 29 1008.7
20260508192102 64 47 3.0 0.0 0.00 0.00 0.00 33 1008.6
20260508191602 64 52 3.0 0.0 0.00 0.00 0.00 31 1008.6
20260508191048 64 271 5.0 0.0 0.00 0.00 0.00 31 1008.8
20260508190531 64 211 4.0 0.0 0.00 0.00 0.00 31 1008.7
20260508190036 64 103 4.0 0.0 0.00 0.00 0.00 35 1008.8
20260508185541 64 86 4.0 0.0 0.00 0.00 0.00 33 1008.9
20260508185036 64 112 5.0 0.0 0.00 0.00 0.00 35 1009.0
20260508184543 64 163 6.0 0.0 0.00 0.00 0.00 32 1009.0
20260508184033 63 130 7.0 0.0 0.00 0.00 0.00 35 1009.0
20260508183514 63 147 7.0 0.0 0.00 0.00 0.00 35 1009.0
20260508183014 64 129 5.0 0.0 0.00 0.00 0.00 35 1009.1
20260508182514 64 136 4.0 0.0 0.00 0.00 0.00 37 1009.3
20260508182107 63 161 3.0 0.0 0.00 0.00 0.00 35 1009.4
20260508181557 63 109 4.0 0.0 0.00 0.00 0.00 34 1009.4
20260508181033 63 175 5.0 0.0 0.00 0.00 0.00 37 1009.5
20260508180521 62 138 5.0 0.0 0.00 0.00 0.00 36 1009.5
20260508180005 62 115 5.0 0.0 0.00 0.00 0.00 36 1009.5
20260508175556 62 124 4.0 0.0 0.00 0.00 0.00 38 1009.6